| time (UTC) | temp F | wind direction | speed knots | gust knots | rain 1hr in | rain 24hr in | rain mn in | humidity % | barometer mb |
| 20260508030229 | 78 | 290 | 0.9 | 1.7 | 0.00 | 0.00 | 0.00 | 74 | 1011.3 |
| 20260508025228 | 79 | 286 | 0.9 | 1.7 | 0.00 | 0.00 | 0.00 | 73 | 1011.3 |
| 20260508024228 | 79 | 289 | 0.9 | 1.7 | 0.00 | 0.00 | 0.00 | 72 | 1011.3 |
| 20260508023227 | 79 | 295 | 0.9 | 1.7 | 0.00 | 0.00 | 0.00 | 70 | 1011.0 |
| 20260508022155 | 79 | 293 | 0.9 | 1.7 | 0.00 | 0.00 | 0.00 | 69 | 1011.0 |
| 20260508021122 | 80 | 290 | 0.9 | 2.6 | 0.00 | 0.00 | 0.00 | 66 | 1010.6 |
| 20260508020121 | 80 | 296 | 0.9 | 2.6 | 0.00 | 0.00 | 0.00 | 64 | 1010.6 |
| 20260508015120 | 81 | 307 | 0.9 | 2.6 | 0.00 | 0.00 | 0.00 | 60 | 1010.6 |
| 20260508014120 | 81 | 280 | 0.9 | 1.7 | 0.00 | 0.00 | 0.00 | 57 | 1010.6 |
| 20260508013119 | 82 | 283 | 0.9 | 2.6 | 0.00 | 0.00 | 0.00 | 54 | 1010.6 |
| 20260508012015 | 82 | 285 | 0.9 | 2.6 | 0.00 | 0.00 | 0.00 | 50 | 1010.3 |
| 20260508011014 | 83 | 285 | 0.9 | 2.6 | 0.00 | 0.00 | 0.00 | 49 | 1010.3 |
| 20260508010013 | 83 | 288 | 0.9 | 0.9 | 0.00 | 0.00 | 0.00 | 48 | 1010.3 |
| 20260508005012 | 83 | 288 | 0.9 | 0.9 | 0.00 | 0.00 | 0.00 | 46 | 1010.3 |
| 20260508004011 | 84 | 285 | 0.9 | 1.7 | 0.00 | 0.00 | 0.00 | 44 | 1010.3 |
| 20260508003011 | 85 | 271 | 0.9 | 1.7 | 0.00 | 0.00 | 0.00 | 43 | 1009.9 |
| 20260508002010 | 85 | 301 | 0.9 | 1.7 | 0.00 | 0.00 | 0.00 | 42 | 1009.9 |
| 20260508001009 | 86 | 291 | 0.9 | 2.6 | 0.00 | 0.00 | 0.00 | 41 | 1009.9 |
| 20260508000008 | 87 | 284 | 0.9 | 1.7 | 0.00 | 0.00 | 0.00 | 40 | 1009.9 |
| 20260507235007 | 88 | 281 | 0.9 | 1.7 | 0.00 | 0.00 | 0.00 | 38 | 1009.9 |
| 20260507234007 | 89 | 274 | 0.9 | 2.6 | 0.00 | 0.00 | 0.00 | 36 | 1009.6 |
| 20260507232935 | 89 | 282 | 0.9 | 2.6 | 0.00 | 0.00 | 0.00 | 34 | 1009.9 |
| 20260507231934 | 90 | 269 | 0.9 | 3.5 | 0.00 | 0.00 | 0.00 | 33 | 1009.6 |
| 20260507230901 | 91 | 318 | 1.7 | 3.5 | 0.00 | 0.00 | 0.00 | 33 | 1009.6 |
| 20260507225727 | 91 | 261 | 0.9 | 3.5 | 0.00 | 0.00 | 0.00 | 32 | 1009.6 |
| 20260507224726 | 91 | 276 | 0.9 | 3.5 | 0.00 | 0.00 | 0.00 | 32 | 1009.6 |
| 20260507223726 | 92 | 292 | 1.7 | 3.5 | 0.00 | 0.00 | 0.00 | 31 | 1009.6 |
| 20260507222725 | 92 | 276 | 1.7 | 5.2 | 0.00 | 0.00 | 0.00 | 31 | 1009.6 |
| 20260507221724 | 93 | 302 | 1.7 | 6.1 | 0.00 | 0.00 | 0.00 | 31 | 1009.6 |
| 20260507220652 | 94 | 295 | 1.7 | 6.1 | 0.00 | 0.00 | 0.00 | 32 | 1009.6 |
| 20260507215651 | 94 | 278 | 0.9 | 7.8 | 0.00 | 0.00 | 0.00 | 36 | 1009.6 |
| 20260507214650 | 94 | 311 | 2.6 | 7.8 | 0.00 | 0.00 | 0.00 | 36 | 1009.6 |
| 20260507213649 | 94 | 294 | 2.6 | 5.2 | 0.00 | 0.00 | 0.00 | 37 | 1009.6 |
| 20260507212648 | 94 | 264 | 1.7 | 5.2 | 0.00 | 0.00 | 0.00 | 39 | 1009.6 |
| 20260507211647 | 95 | 245 | 0.9 | 5.2 | 0.00 | 0.00 | 0.00 | 37 | 1009.6 |
| 20260507210646 | 95 | 233 | 0.9 | 4.3 | 0.00 | 0.00 | 0.00 | 37 | 1009.6 |
| 20260507205646 | 95 | 315 | 1.7 | 4.3 | 0.00 | 0.00 | 0.00 | 36 | 1009.6 |
| 20260507204645 | 95 | 254 | 0.9 | 3.5 | 0.00 | 0.00 | 0.00 | 36 | 1009.6 |
| 20260507203643 | 95 | 271 | 0.9 | 5.2 | 0.00 | 0.00 | 0.00 | 38 | 1009.6 |
| 20260507202643 | 95 | 302 | 0.9 | 5.2 | 0.00 | 0.00 | 0.00 | 37 | 1010.0 |
| 20260507201642 | 95 | 273 | 1.7 | 5.2 | 0.00 | 0.00 | 0.00 | 35 | 1010.0 |
| 20260507200640 | 95 | 299 | 2.6 | 6.1 | 0.00 | 0.00 | 0.00 | 36 | 1010.3 |
| 20260507195639 | 96 | 305 | 2.6 | 6.1 | 0.00 | 0.00 | 0.00 | 34 | 1010.3 |
| 20260507194638 | 96 | 257 | 1.7 | 5.2 | 0.00 | 0.00 | 0.00 | 33 | 1010.3 |
| 20260507193637 | 97 | 306 | 1.7 | 5.2 | 0.00 | 0.00 | 0.00 | 33 | 1010.6 |
| 20260507192637 | 97 | 235 | 2.6 | 7.0 | 0.00 | 0.00 | 0.00 | 34 | 1010.3 |
| 20260507191636 | 96 | 253 | 1.7 | 7.0 | 0.00 | 0.00 | 0.00 | 35 | 1010.6 |
| 20260507190635 | 96 | 279 | 1.7 | 7.0 | 0.00 | 0.00 | 0.00 | 34 | 1010.6 |
| 20260507185603 | 96 | 237 | 1.7 | 8.7 | 0.00 | 0.00 | 0.00 | 36 | 1011.0 |
| 20260507184602 | 96 | 204 | 1.7 | 8.7 | 0.00 | 0.00 | 0.00 | 36 | 1011.3 |
| 20260507183601 | 95 | 152 | 1.7 | 5.2 | 0.00 | 0.00 | 0.00 | 36 | 1011.3 |
| 20260507182600 | 95 | 213 | 1.7 | 4.3 | 0.00 | 0.00 | 0.00 | 37 | 1011.7 |
| 20260507181559 | 94 | 307 | 1.7 | 7.0 | 0.00 | 0.00 | 0.00 | 38 | 1012.0 |
| 20260507180559 | 94 | 257 | 1.7 | 8.7 | 0.00 | 0.00 | 0.00 | 40 | 1012.0 |
| 20260507175557 | 94 | 183 | 3.5 | 9.6 | 0.00 | 0.00 | 0.00 | 41 | 1012.0 |
| 20260507174525 | 93 | 246 | 2.6 | 9.6 | 0.00 | 0.00 | 0.00 | 43 | 1012.3 |
| 20260507173524 | 93 | 246 | 2.6 | 7.0 | 0.00 | 0.00 | 0.00 | 43 | 1012.3 |
| 20260507172523 | 92 | 270 | 1.7 | 7.0 | 0.00 | 0.00 | 0.00 | 47 | 1012.3 |
| 20260507171522 | 93 | 283 | 1.7 | 5.2 | 0.00 | 0.00 | 0.00 | 47 | 1012.3 |
| 20260507170521 | 92 | 279 | 2.6 | 6.1 | 0.00 | 0.00 | 0.00 | 46 | 1012.3 |
| 20260507165520 | 92 | 240 | 1.7 | 4.3 | 0.00 | 0.00 | 0.00 | 47 | 1012.3 |
| 20260507164520 | 92 | 268 | 1.7 | 5.2 | 0.00 | 0.00 | 0.00 | 49 | 1012.3 |
| 20260507163519 | 92 | 164 | 2.6 | 7.8 | 0.00 | 0.00 | 0.00 | 49 | 1012.3 |
| 20260507162518 | 91 | 163 | 3.5 | 7.8 | 0.00 | 0.00 | 0.00 | 53 | 1012.3 |
| 20260507161517 | 91 | 254 | 0.9 | 7.0 | 0.00 | 0.00 | 0.00 | 54 | 1012.7 |
| 20260507160445 | 90 | 205 | 1.7 | 8.7 | 0.00 | 0.00 | 0.00 | 57 | 1012.7 |
| 20260507155444 | 90 | 210 | 1.7 | 8.7 | 0.00 | 0.00 | 0.00 | 57 | 1012.7 |
| 20260507154443 | 89 | 211 | 1.7 | 5.2 | 0.00 | 0.00 | 0.00 | 59 | 1013.0 |
| 20260507153411 | 89 | 259 | 0.9 | 6.1 | 0.00 | 0.00 | 0.00 | 59 | 1013.0 |
| 20260507152411 | 89 | 176 | 2.6 | 7.0 | 0.00 | 0.00 | 0.00 | 61 | 1013.0 |
| 20260507151338 | 88 | 172 | 2.6 | 7.0 | 0.00 | 0.00 | 0.00 | 62 | 1013.0 |
| 20260507150337 | 87 | 176 | 1.7 | 7.8 | 0.00 | 0.00 | 0.00 | 64 | 1013.0 |
| 20260507145307 | 87 | 173 | 1.7 | 7.8 | 0.00 | 0.00 | 0.00 | 65 | 1013.3 |
| 20260507144304 | 86 | 233 | 1.7 | 7.0 | 0.00 | 0.00 | 0.00 | 66 | 1013.3 |
| 20260507143303 | 86 | 182 | 3.5 | 8.7 | 0.00 | 0.00 | 0.00 | 68 | 1013.3 |
| 20260507142306 | 85 | 172 | 4.3 | 8.7 | 0.00 | 0.00 | 0.00 | 67 | 1013.3 |
| 20260507141301 | 84 | 264 | 0.9 | 6.1 | 0.00 | 0.00 | 0.00 | 70 | 1013.3 |
| 20260507140300 | 83 | 186 | 1.7 | 8.7 | 0.00 | 0.00 | 0.00 | 71 | 1013.7 |
| 20260507135259 | 83 | 164 | 2.6 | 6.1 | 0.00 | 0.00 | 0.00 | 74 | 1013.3 |
| 20260507134258 | 82 | 189 | 2.6 | 8.7 | 0.00 | 0.00 | 0.00 | 74 | 1013.3 |
| 20260507133257 | 81 | 167 | 2.6 | 8.7 | 0.00 | 0.00 | 0.00 | 75 | 1013.7 |
| 20260507132257 | 81 | 159 | 3.5 | 8.7 | 0.00 | 0.00 | 0.00 | 76 | 1013.3 |
| 20260507131256 | 80 | 170 | 1.7 | 6.1 | 0.00 | 0.00 | 0.00 | 77 | 1013.3 |
| 20260507130255 | 79 | 172 | 0.9 | 4.3 | 0.00 | 0.00 | 0.00 | 78 | 1013.3 |
| 20260507125254 | 78 | 167 | 1.7 | 4.3 | 0.00 | 0.00 | 0.00 | 82 | 1013.7 |
| 20260507124253 | 76 | 156 | 1.7 | 4.3 | 0.00 | 0.00 | 0.00 | 85 | 1013.3 |
| 20260507123252 | 74 | 171 | 1.7 | 2.6 | 0.00 | 0.00 | 0.00 | 88 | 1013.7 |
| 20260507122251 | 72 | 113 | 0.9 | 1.7 | 0.00 | 0.00 | 0.00 | 91 | 1013.7 |
| 20260507121219 | 70 | 152 | 0.0 | 1.7 | 0.00 | 0.00 | 0.00 | 94 | 1013.7 |
| 20260507120218 | 70 | 149 | 0.0 | 0.9 | 0.00 | 0.00 | 0.00 | 94 | 1013.7 |
| 20260507115217 | 69 | 121 | 0.0 | 0.9 | 0.00 | 0.00 | 0.00 | 95 | 1013.7 |
| 20260507114216 | 68 | 153 | 0.0 | 0.0 | 0.00 | 0.00 | 0.00 | 95 | 1013.3 |
| 20260507113215 | 67 | 153 | 0.0 | 0.0 | 0.00 | 0.00 | 0.00 | 95 | 1013.3 |
| 20260507112143 | 67 | 153 | 0.0 | 0.0 | 0.00 | 0.00 | 0.00 | 96 | 1013.3 |
| 20260507111142 | 66 | 153 | 0.0 | 0.0 | 0.00 | 0.00 | 0.00 | 96 | 1013.0 |
| 20260507110141 | 66 | 153 | 0.0 | 0.0 | 0.00 | 0.00 | 0.00 | 96 | 1013.0 |
| 20260507105140 | 66 | 153 | 0.0 | 0.0 | 0.00 | 0.00 | 0.00 | 96 | 1013.0 |
| 20260507104139 | 65 | 154 | 0.0 | 0.0 | 0.00 | 0.00 | 0.00 | 95 | 1013.0 |
| 20260507103138 | 66 | 153 | 0.0 | 0.0 | 0.00 | 0.00 | 0.00 | 95 | 1013.0 |
| 20260507102106 | 66 | 154 | 0.0 | 0.0 | 0.00 | 0.00 | 0.00 | 95 | 1012.6 |
| 20260507101106 | 66 | 153 | 0.0 | 0.0 | 0.00 | 0.00 | 0.00 | 95 | 1012.7 |
| 20260507100105 | 66 | 153 | 0.0 | 0.0 | 0.00 | 0.00 | 0.00 | 94 | 1012.7 |
| 20260507095104 | 66 | 154 | 0.0 | 0.0 | 0.00 | 0.00 | 0.00 | 94 | 1012.7 |
| 20260507094103 | 66 | 153 | 0.0 | 0.0 | 0.00 | 0.00 | 0.00 | 94 | 1012.7 |
| 20260507093102 | 66 | 153 | 0.0 | 0.0 | 0.00 | 0.00 | 0.00 | 94 | 1012.7 |
| 20260507092101 | 66 | 154 | 0.0 | 0.0 | 0.00 | 0.00 | 0.00 | 94 | 1012.7 |
| 20260507091100 | 66 | 154 | 0.0 | 0.0 | 0.00 | 0.00 | 0.00 | 93 | 1012.3 |
| 20260507090059 | 66 | 153 | 0.0 | 0.0 | 0.00 | 0.00 | 0.00 | 93 | 1012.3 |
| 20260507085058 | 65 | 154 | 0.0 | 0.0 | 0.00 | 0.00 | 0.00 | 93 | 1012.0 |
| 20260507084057 | 65 | 153 | 0.0 | 0.0 | 0.00 | 0.00 | 0.00 | 92 | 1012.3 |
| 20260507083056 | 65 | 154 | 0.0 | 0.0 | 0.00 | 0.00 | 0.00 | 92 | 1012.3 |
| 20260507082055 | 65 | 154 | 0.0 | 0.0 | 0.00 | 0.00 | 0.00 | 91 | 1012.3 |
| 20260507081054 | 65 | 153 | 0.0 | 0.0 | 0.00 | 0.00 | 0.00 | 91 | 1012.3 |
| 20260507080053 | 66 | 153 | 0.0 | 0.0 | 0.00 | 0.00 | 0.00 | 90 | 1012.3 |
| 20260507075052 | 66 | 153 | 0.0 | 0.0 | 0.00 | 0.00 | 0.00 | 90 | 1012.3 |
| 20260507074020 | 67 | 153 | 0.0 | 0.0 | 0.00 | 0.00 | 0.00 | 90 | 1012.3 |
| 20260507072948 | 67 | 154 | 0.0 | 0.0 | 0.00 | 0.00 | 0.00 | 88 | 1012.3 |
| 20260507071947 | 67 | 153 | 0.0 | 0.0 | 0.00 | 0.00 | 0.00 | 88 | 1012.3 |
| 20260507070946 | 68 | 153 | 0.0 | 0.0 | 0.00 | 0.00 | 0.00 | 87 | 1012.7 |
| 20260507065945 | 68 | 154 | 0.0 | 0.0 | 0.00 | 0.00 | 0.00 | 87 | 1012.7 |
| 20260507064944 | 69 | 153 | 0.0 | 0.0 | 0.00 | 0.00 | 0.00 | 84 | 1013.0 |
| 20260507063943 | 69 | 154 | 0.0 | 0.0 | 0.00 | 0.00 | 0.00 | 83 | 1013.0 |
| 20260507062942 | 70 | 154 | 0.0 | 0.0 | 0.00 | 0.00 | 0.00 | 82 | 1013.3 |
| 20260507061942 | 70 | 153 | 0.0 | 0.0 | 0.00 | 0.00 | 0.00 | 81 | 1013.3 |
| 20260507060941 | 71 | 154 | 0.0 | 0.0 | 0.00 | 0.00 | 0.00 | 80 | 1013.3 |
| 20260507055909 | 72 | 153 | 0.0 | 0.0 | 0.00 | 0.00 | 0.00 | 76 | 1013.3 |
| 20260507054908 | 73 | 154 | 0.0 | 0.9 | 0.00 | 0.00 | 0.00 | 75 | 1013.3 |
| 20260507053908 | 73 | 153 | 0.0 | 0.9 | 0.00 | 0.00 | 0.00 | 73 | 1013.7 |
| 20260507052906 | 74 | 146 | 0.0 | 3.5 | 0.00 | 0.00 | 0.00 | 72 | 1013.7 |
| 20260507051905 | 74 | 160 | 0.0 | 3.5 | 0.00 | 0.00 | 0.00 | 71 | 1013.7 |
| 20260507050904 | 73 | 204 | 0.9 | 1.7 | 0.00 | 0.00 | 0.00 | 73 | 1013.7 |
| 20260507045903 | 73 | 153 | 0.9 | 1.7 | 0.00 | 0.00 | 0.00 | 75 | 1013.7 |
| 20260507044902 | 72 | 150 | 0.0 | 0.9 | 0.00 | 0.00 | 0.00 | 76 | 1013.7 |
| 20260507043759 | 72 | 141 | 0.0 | 1.7 | 0.00 | 0.00 | 0.00 | 77 | 1013.7 |
| 20260507042758 | 72 | 144 | 0.9 | 1.7 | 0.00 | 0.00 | 0.00 | 79 | 1014.0 |
| 20260507041757 | 72 | 172 | 0.0 | 0.0 | 0.00 | 0.00 | 0.00 | 79 | 1014.0 |
| 20260507040757 | 72 | 172 | 0.0 | 0.0 | 0.00 | 0.00 | 0.00 | 79 | 1014.0 |
| 20260507035756 | 72 | 172 | 0.0 | 0.0 | 0.00 | 0.00 | 0.00 | 78 | 1014.0 |
| 20260507034755 | 73 | 172 | 0.0 | 0.9 | 0.00 | 0.00 | 0.00 | 77 | 1013.7 |
| 20260507033754 | 73 | 172 | 0.0 | 0.9 | 0.00 | 0.00 | 0.00 | 76 | 1014.0 |
| 20260507032753 | 74 | 172 | 0.0 | 0.0 | 0.00 | 0.00 | 0.00 | 76 | 1014.0 |
| 20260507031752 | 74 | 172 | 0.0 | 0.0 | 0.00 | 0.00 | 0.00 | 74 | 1014.0 |